User: anonymous   Login
Location: Carbonear
(47.7333°N, 53.2500°W)
Time: 10:11:12
(UTC+00:00)
Language:

AO-73 - Orbit

View from above orbital plane
View from above orbital plane
View from above satellite
View from above satellite

Ground track
Ground track

The orbit data is extracted from the following two-line orbital elements,

1 39444U 13066AE  22329.82919289  .00001980  00000-0  23645-3 0  9997
2 39444  97.6461 296.7188 0054266 221.4449 138.2645 14.84282265485456
Epoch (UTC): 25 November 2022 19:54:02
Eccentricity: 0.0054266
inclination: 97.6461°
perigee height: 578 km
apogee height: 654 km
right ascension of ascending node: 296.7188°
argument of perigee: 221.4449°
revolutions per day: 14.84282265
mean anomaly at epoch: 138.2645°
orbit number at epoch: 48545

The dashed part of the orbit path shows where the satellite is in the earth's shadow,  

DLR